Home > Weather > Gustavia > Past weeks

Weather for the Past 2 Weeks in Gustavia, Saint Barthélemy

Now
75 °F

Passing clouds.


Feels Like: 76 °F
Forecast: 76 / 80 °F
Wind: 6 mph from South

Location: Juliana Airport - Saint Maarten

Current Time: Feb 14, 2016 at 5:24:32 AM

Latest Report: Feb 14, 2016 at 5:00 AM


Visibility: N/A

Pressure: 29.95 "Hg

Humidity: 78%

Dew point: 68 °F

Location of GustaviaLocation

Historic Weather in Gustavia — Graph

°F

Gustavia Temperature Yesterday

Maximum temperature yesterday: 84 °F (at 1:00 PM)
Minimum temperature yesterday: 77 °F (at 5:00 AM)
Average temperature yesterday: 80 °F

High & Low Weather Summary for the Past Weeks

 TemperatureHumidityPressure
High84 °F (Feb 5, 12:00 PM)94% (Jan 30, 4:00 AM)30.15 "Hg (Jan 30, 4:00 AM)
Low73 °F (Jan 30, 3:00 AM)54% (Feb 4, 3:00 PM)29.86 "Hg (Feb 4, 3:00 PM)
Average79 °F73%30.04 "Hg
* Reported Jan 30 3:00 AM — Feb 14 3:00 AM, Gustavia, Weather by CustomWeather, © 2016

Note: Actual official high and low records may vary slightly from our data, if they occured in-between our weather recording intervals... More about our weather records

Advertising

Gustavia Weather History for the Previous 24 Hours

 ConditionsComfort  
Time TempWeatherWind HumidityBarometerVisibility
3:00 AM
Sun, Feb 14
77 °FPassing clouds.12 mph79%29.98 "HgN/A
2:00 AM77 °FPassing clouds.8 mph74%29.98 "HgN/A
1:00 AM79 °FPassing clouds.8 mph70%30.01 "HgN/A
12:00 AM79 °FPassing clouds.9 mph70%30.01 "HgN/A
11:00 PM
Sat, Feb 13
79 °FPassing clouds.8 mph70%30.04 "HgN/A
10:00 PM79 °FPassing clouds.9 mph74%30.04 "HgN/A
9:00 PM79 °FPassing clouds.8 mph74%30.04 "HgN/A
8:00 PM79 °FPassing clouds.8 mph70%30.04 "HgN/A
7:00 PM79 °FPassing clouds.7 mph70%30.01 "HgN/A
6:00 PM79 °FScattered clouds.9 mph70%30.01 "HgN/A
5:00 PM81 °FPassing clouds.10 mph66%29.98 "HgN/A
4:00 PM81 °FPassing clouds.10 mph66%29.98 "HgN/A
3:00 PM82 °FPartly sunny.9 mph62%29.98 "HgN/A
2:00 PM82 °FScattered clouds.9 mph62%29.98 "HgN/A
1:00 PM84 °FScattered clouds.10 mph55%30.04 "HgN/A
12:00 PM82 °FScattered clouds.12 mph58%30.04 "HgN/A
11:00 AM81 °FScattered showers. Broken clouds.10 mph66%30.07 "HgN/A
10:00 AM81 °FScattered showers. Partly sunny.10 mph66%30.07 "HgN/A
9:00 AM81 °FScattered showers. Scattered clouds.12 mph62%30.07 "HgN/A
8:00 AM79 °FPassing clouds.9 mph65%30.04 "HgN/A
7:00 AM77 °FPassing clouds.13 mph69%30.04 "HgN/A
6:00 AM77 °FPassing clouds.10 mph74%30.01 "HgN/A
5:00 AM77 °FPassing clouds.9 mph74%30.01 "HgN/A
Weather by CustomWeather, © 2016

See weather overviewHow to use our weather pages